Погода в Курганове

Россия / Свердловская область     56°37′59″N   60°23′13″E
темп.,
°C
ветер,
м/с
пор.,
м/с
влажн.,
%
обл.,
%
осадки,
мм/ч
давл.,
гПа
погр.,
м
28 июля, ср
ср2823:00+10зсз24735 0.0 101173
02:00+7зсз22855 0.0 101227
05:00+5з37945 0.0 1012168
08:00+10зсз3865100 0.0 1011674
11:00+13зсз4849100 0.0 10111729
14:00+10сз497999 0.3 10111116
17:00+14сз4754100 0.4 10111873
20:00+12зсз486131 0.0 1012729
29 июля, чт
чт2923:00+11з276280 0.0 1012268
02:00+6з269015 0.0 1012113
05:00+6з3109399 0.0 1012260
08:00+11з4106680 0.0 1011686
11:00+17з694413 0.0 10091489
14:00+21з61036100 0.0 10072851
17:00+21з6124177 0.0 10072555
20:00+18з4105351 0.0 1007566
30 июля, пт
пт3023:00+13зюз311735 0.0 1007224
02:00+12юз278897 0.0 1006125
05:00+14юз3873100 0.1 1005209
08:00+15зюз4967100 0.0 1005357
11:00+17юз4567100 0.0 1003782
14:00+13юз3896100 1.2 1003497
17:00+14зюз3796100 1.6 1003576
20:00+14з389699 0.0 1004544
31 июля, сб
сб3123:00+14юз269751 0.0 1005195
02:00+12юз259811 0.0 1005127
05:00+12зюз25985 0.0 1006117
08:00+17з36878 0.0 1007343
11:00+23з4759100 0.0 10061338
14:00+26з464695 0.1 10062150
17:00+20зюз5982100 0.7 1006537
20:00+18юз27928 0.3 1006365
1 августа, вс
вс123:00+15ююз2698100 0.3 1006159
02:00+16юз31297100 0.0 1005392
05:00+16зюз31198100 0.1 1005426
08:00+17з41091100 0.0 1006723
11:00+22зсз59544 0.0 10061261
14:00+25зсз593979 0.0 10062670
17:00+24зсз594712 0.0 10072137
20:00+20сз26662 0.0 1008158